^^
Saratoga-Weather Station Historical Data
Daily Summary for August 14, 2022 Units:  English    Metric   Both
Daily Weekly Monthly Yearly Custom
  High: Low: Average:
Temperature: 81 °F 61.2 °F 67.3 °F
Dew Point: 56.3 °F 50 °F 52.2 °F
Humidity: 68% 43% 59%
Wind Speed: 2.9mph 0mph 0.4mph
Wind Gust: 7mph - -
Wind- - ESE
Pressure: 29.8 in 29.7 in -
Precipitation: 0 in    
Historical Graphs
 
 
Tabular Data for August 14, 2022
Time Temperature Dew Point Pressure Wind Wind Speed Wind Gust Humidity Rainfall Rate (Hourly) solar
00:03 68.4 °F 51.6 °F 29.8 in Calm     55% 0 in 0 W/m2
00:08 68.4 °F 51.6 °F 29.8 in Calm     55% 0 in 0 W/m2
00:13 68.2 °F 51.8 °F 29.8 in East 0.9 mph 2 mph 56% 0 in 0 W/m2
00:18 68 °F 51.8 °F 29.8 in East 0.9 mph 1 mph 56% 0 in 0 W/m2
00:23 68 °F 51.8 °F 29.8 in Calm     56% 0 in 0 W/m2
00:28 67.8 °F 51.6 °F 29.8 in Calm     56% 0 in 0 W/m2
00:33 67.6 °F 51.8 °F 29.8 in Calm     57% 0 in 0 W/m2
00:38 67.5 °F 51.3 °F 29.8 in Calm     56% 0 in 0 W/m2
00:43 67.3 °F 51.4 °F 29.8 in Calm     57% 0 in 0 W/m2
00:48 67.1 °F 51.4 °F 29.8 in Calm     57% 0 in 0 W/m2
00:53 66.9 °F 51.3 °F 29.8 in Calm     57% 0 in 0 W/m2
00:58 66.7 °F 51.1 °F 29.8 in Calm   1 mph 57% 0 in 0 W/m2
01:03 66.6 °F 51.3 °F 29.8 in Calm   2 mph 58% 0 in 0 W/m2
01:08 66.4 °F 51.1 °F 29.8 in Calm     58% 0 in 0 W/m2
01:13 66.4 °F 51.1 °F 29.8 in Calm     58% 0 in 0 W/m2
01:18 66.4 °F 51.1 °F 29.8 in Calm     58% 0 in 0 W/m2
01:23 66.4 °F 51.1 °F 29.8 in Calm     58% 0 in 0 W/m2
01:28 66.2 °F 51.4 °F 29.8 in Calm   1 mph 59% 0 in 0 W/m2
01:33 66 °F 51.3 °F 29.8 in Calm   1 mph 59% 0 in 0 W/m2
01:38 66 °F 51.3 °F 29.8 in Calm     59% 0 in 0 W/m2
01:43 65.8 °F 51.1 °F 29.8 in Calm     59% 0 in 0 W/m2
01:48 65.7 °F 51.4 °F 29.8 in Calm     60% 0 in 0 W/m2
01:53 65.5 °F 51.3 °F 29.8 in Calm     60% 0 in 0 W/m2
01:58 65.1 °F 50.9 °F 29.8 in Calm   1 mph 60% 0 in 0 W/m2
02:03 65.1 °F 50.9 °F 29.8 in Calm     60% 0 in 0 W/m2
02:08 64.9 °F 51.1 °F 29.8 in Calm   1 mph 61% 0 in 0 W/m2
02:13 64.9 °F 51.1 °F 29.8 in Calm     61% 0 in 0 W/m2
02:18 64.8 °F 51.1 °F 29.8 in Calm     61% 0 in 0 W/m2
02:23 64.8 °F 51.1 °F 29.8 in Calm     61% 0 in 0 W/m2
02:28 64.6 °F 51.3 °F 29.8 in Calm     62% 0 in 0 W/m2
02:33 64.6 °F 51.3 °F 29.8 in Calm     62% 0 in 0 W/m2
02:38 64.4 °F 51.1 °F 29.8 in Calm     62% 0 in 0 W/m2
02:43 64.2 °F 50.9 °F 29.8 in Calm     62% 0 in 0 W/m2
02:48 64.2 °F 51.4 °F 29.8 in Calm     63% 0 in 0 W/m2
02:53 64 °F 51.3 °F 29.8 in Calm     63% 0 in 0 W/m2
02:58 64 °F 51.3 °F 29.8 in Calm     63% 0 in 0 W/m2
03:03 63.9 °F 51.4 °F 29.8 in Calm     64% 0 in 0 W/m2
03:08 63.7 °F 51.3 °F 29.8 in Calm     64% 0 in 0 W/m2
03:13 63.5 °F 51.1 °F 29.8 in Calm     64% 0 in 0 W/m2
03:18 63.3 °F 51.4 °F 29.8 in Calm     65% 0 in 0 W/m2
03:23 63.3 °F 51.4 °F 29.8 in Calm     65% 0 in 0 W/m2
03:28 63.3 °F 50.9 °F 29.8 in Calm     64% 0 in 0 W/m2
03:33 63.3 °F 50.9 °F 29.8 in Calm     64% 0 in 0 W/m2
03:38 63.3 °F 50.9 °F 29.8 in Calm     64% 0 in 0 W/m2
03:43 63.3 °F 50.9 °F 29.8 in Calm     64% 0 in 0 W/m2
03:48 63.3 °F 50.9 °F 29.8 in Calm     64% 0 in 0 W/m2
03:53 63.3 °F 50.9 °F 29.8 in Calm     64% 0 in 0 W/m2
03:58 63.1 °F 50.7 °F 29.8 in Calm     64% 0 in 0 W/m2
04:03 63 °F 50.5 °F 29.8 in Calm     64% 0 in 0 W/m2
04:08 63 °F 51.1 °F 29.8 in Calm     65% 0 in 0 W/m2
04:13 63 °F 51.1 °F 29.8 in Calm     65% 0 in 0 W/m2
04:18 62.8 °F 50.9 °F 29.8 in Calm     65% 0 in 0 W/m2
04:23 62.8 °F 50.9 °F 29.8 in Calm     65% 0 in 0 W/m2
04:28 62.8 °F 50.9 °F 29.8 in Calm     65% 0 in 0 W/m2
04:33 62.8 °F 50.9 °F 29.8 in Calm   1 mph 65% 0 in 0 W/m2
04:38 62.6 °F 51.1 °F 29.8 in Calm     66% 0 in 0 W/m2
04:43 62.4 °F 50.9 °F 29.8 in Calm     66% 0 in 0 W/m2
04:48 62.2 °F 50.4 °F 29.8 in Calm     65% 0 in 0 W/m2
04:53 62.1 °F 50.5 °F 29.8 in Calm   1 mph 66% 0 in 0 W/m2
04:58 62.1 °F 50.9 °F 29.8 in Calm   1 mph 67% 0 in 0 W/m2
05:03 61.9 °F 50.7 °F 29.8 in Calm     67% 0 in 0 W/m2
05:08 61.9 °F 50.7 °F 29.8 in Calm   1 mph 67% 0 in 0 W/m2
05:13 61.7 °F 50.7 °F 29.8 in East 0.9 mph 2 mph 67% 0 in 0 W/m2
05:18 61.7 °F 50.7 °F 29.8 in East 0.9 mph 2 mph 67% 0 in 0 W/m2
05:23 61.5 °F 50.5 °F 29.8 in Calm   1 mph 67% 0 in 0 W/m2
05:28 61.5 °F 50.9 °F 29.8 in Calm     68% 0 in 0 W/m2
05:33 61.5 °F 50.5 °F 29.8 in Calm   2 mph 67% 0 in 0 W/m2
05:38 61.5 °F 50.5 °F 29.8 in Calm   1 mph 67% 0 in 0 W/m2
05:43 61.3 °F 50.7 °F 29.8 in East 0.9 mph 2 mph 68% 0 in 0 W/m2
05:48 61.3 °F 50.7 °F 29.8 in Calm   1 mph 68% 0 in 0 W/m2
05:53 61.3 °F 50.7 °F 29.8 in Calm     68% 0 in 0 W/m2
05:58 61.3 °F 50.7 °F 29.8 in Calm   1 mph 68% 0 in 0 W/m2
06:03 61.3 °F 50.7 °F 29.8 in Calm     68% 0 in 0 W/m2
06:08 61.3 °F 50.7 °F 29.8 in Calm   1 mph 68% 0 in 0 W/m2
06:13 61.3 °F 50.7 °F 29.8 in East 2 mph 2 mph 68% 0 in 0 W/m2
06:18 61.2 °F 50.5 °F 29.8 in Calm   2 mph 68% 0 in 7 W/m2
06:23 61.2 °F 50.5 °F 29.8 in Calm     68% 0 in 9 W/m2
06:28 61.2 °F 50.5 °F 29.8 in Calm   2 mph 68% 0 in 7 W/m2
06:33 61.2 °F 50.5 °F 29.8 in East 0.9 mph 1 mph 68% 0 in 9 W/m2
06:38 61.3 °F 50.4 °F 29.8 in East 0.9 mph 2 mph 67% 0 in 12 W/m2
06:43 61.5 °F 50.5 °F 29.8 in Calm     67% 0 in 18 W/m2
06:48 61.5 °F 50 °F 29.8 in Calm     66% 0 in 23 W/m2
06:53 61.9 °F 50.7 °F 29.8 in Calm   1 mph 67% 0 in 28 W/m2
06:58 62.1 °F 50.5 °F 29.8 in Calm     66% 0 in 35 W/m2
07:03 62.2 °F 50.7 °F 29.8 in Calm     66% 0 in 40 W/m2
07:08 62.4 °F 50.9 °F 29.8 in Calm     66% 0 in 44 W/m2
07:13 62.8 °F 51.3 °F 29.8 in Calm     66% 0 in 51 W/m2
07:18 63 °F 51.1 °F 29.8 in Calm     65% 0 in 58 W/m2
07:23 63.1 °F 51.3 °F 29.8 in Calm     65% 0 in 60 W/m2
07:28 63.7 °F 51.6 °F 29.8 in Calm     65% 0 in 62 W/m2
07:33 64 °F 51.6 °F 29.8 in Calm     64% 0 in 63 W/m2
07:38 64.4 °F 52 °F 29.8 in Calm     64% 0 in 72 W/m2
07:43 64.8 °F 51.8 °F 29.8 in Calm     63% 0 in 109 W/m2
07:48 65.5 °F 51.3 °F 29.8 in East 0.9 mph 1 mph 60% 0 in 79 W/m2
07:53 66 °F 52.2 °F 29.8 in Calm     61% 0 in 146 W/m2
07:58 67.3 °F 52 °F 29.8 in Calm     58% 0 in 149 W/m2
08:03 68.4 °F 52 °F 29.8 in Calm   1 mph 56% 0 in 116 W/m2
08:08 68.9 °F 51.6 °F 29.8 in Calm   1 mph 54% 0 in 69 W/m2
08:13 69.1 °F 51.8 °F 29.8 in West 0.9 mph 2 mph 54% 0 in 53 W/m2
08:18 69.1 °F 52.7 °F 29.8 in South 0.9 mph 2 mph 56% 0 in 74 W/m2
08:23 69.4 °F 52.5 °F 29.8 in Calm     55% 0 in 60 W/m2
08:28 70 °F 52.5 °F 29.8 in South 0.9 mph 1 mph 54% 0 in 58 W/m2
08:33 70.3 °F 52.3 °F 29.8 in Calm     53% 0 in 47 W/m2
08:38 70.7 °F 52.7 °F 29.7 in Calm   2 mph 53% 0 in 49 W/m2
08:43 71.1 °F 53.1 °F 29.8 in NNE 0.9 mph 1 mph 53% 0 in 53 W/m2
08:48 71.6 °F 53.1 °F 29.7 in NNW 0.9 mph 3 mph 52% 0 in 54 W/m2
08:53 72 °F 54 °F 29.7 in Calm   2 mph 53% 0 in 54 W/m2
08:58 72.5 °F 54 °F 29.7 in North 0.9 mph 3 mph 52% 0 in 54 W/m2
09:03 72.7 °F 53.4 °F 29.8 in NE 0.9 mph 3 mph 51% 0 in 56 W/m2
09:08 72.9 °F 54.1 °F 29.8 in ESE 2 mph 2 mph 52% 0 in 58 W/m2
09:13 72.9 °F 54.1 °F 29.8 in East 2 mph 3 mph 52% 0 in 63 W/m2
09:18 72.9 °F 54.1 °F 29.8 in East 0.9 mph 2 mph 52% 0 in 72 W/m2
09:23 73 °F 53.8 °F 29.8 in SSE 0.9 mph 3 mph 51% 0 in 84 W/m2
09:28 73.2 °F 54.5 °F 29.8 in ESE 2 mph 3 mph 52% 0 in 98 W/m2
09:33 73.2 °F 54.5 °F 29.8 in ENE 2.9 mph 4 mph 52% 0 in 128 W/m2
09:38 73.6 °F 54.9 °F 29.8 in NNW 2 mph 4 mph 52% 0 in 123 W/m2
09:43 73.8 °F 55 °F 29.8 in SE 0.9 mph 2 mph 52% 0 in 135 W/m2
09:48 74.1 °F 54.9 °F 29.8 in ESE 2.9 mph 4 mph 51% 0 in 156 W/m2
09:53 74.7 °F 55.4 °F 29.8 in NNE 0.9 mph 3 mph 51% 0 in 174 W/m2
09:58 74.8 °F 55 °F 29.7 in ESE 0.9 mph 4 mph 50% 0 in 186 W/m2
10:03 75 °F 55.6 °F 29.7 in SE 0.9 mph 2 mph 51% 0 in 209 W/m2
10:08 75.4 °F 55.4 °F 29.7 in Calm   2 mph 50% 0 in 257 W/m2
10:13 75.6 °F 55.6 °F 29.7 in East 0.9 mph 3 mph 50% 0 in 285 W/m2
10:18 75.7 °F 55.8 °F 29.7 in East 2.9 mph 4 mph 50% 0 in 397 W/m2
10:23 76.3 °F 55.8 °F 29.7 in NE 2 mph 4 mph 49% 0 in 545 W/m2
10:28 76.5 °F 55.4 °F 29.7 in SE 2 mph 4 mph 48% 0 in 392 W/m2
10:33 76.8 °F 55.6 °F 29.7 in SE 2 mph 2 mph 48% 0 in 327 W/m2
10:38 77.2 °F 55.4 °F 29.8 in ENE 2 mph 4 mph 47% 0 in 589 W/m2
10:43 77.4 °F 55.6 °F 29.8 in Calm   4 mph 47% 0 in 353 W/m2
10:48 77.7 °F 55.9 °F 29.8 in East 2 mph 3 mph 47% 0 in 612 W/m2
10:53 78.3 °F 55.8 °F 29.7 in NE 0.9 mph 4 mph 46% 0 in 450 W/m2
10:58 78.6 °F 56.1 °F 29.7 in ENE 2 mph 2 mph 46% 0 in 585 W/m2
11:03 79.2 °F 55.9 °F 29.7 in ESE 0.9 mph 7 mph 45% 0 in 452 W/m2
11:08 79.3 °F 56.1 °F 29.7 in Calm   3 mph 45% 0 in 640 W/m2
11:13 79.5 °F 56.3 °F 29.7 in SE 2.9 mph 4 mph 45% 0 in 450 W/m2
11:19 79.9 °F 55.9 °F 29.7 in NNW 2 mph 3 mph 44% 0 in 413 W/m2
11:24 80.2 °F 56.3 °F 29.7 in SE 2 mph 4 mph 44% 0 in 466 W/m2
11:29 80.6 °F 56.1 °F 29.7 in ENE 0.9 mph 3 mph 43% 0 in 378 W/m2
11:34 81 °F 56.3 °F 29.7 in ENE 0.9 mph 4 mph 43% 0 in 381 W/m2
Juneau County Weather
Compliments of Weather Underground - 2 mb